Year,Month,Day,Hour,Minute,Value (Times are PST for temperature in C)
2010,04,19,00,00,12.70
2010,04,19,00,01,12.70
2010,04,19,00,02,12.70
2010,04,19,00,03,12.70
2010,04,19,00,04,12.70
2010,04,19,00,05,12.70
2010,04,19,00,06,12.70
2010,04,19,00,07,12.60
2010,04,19,00,08,12.60
2010,04,19,00,09,12.60
2010,04,19,00,10,12.60
2010,04,19,00,11,12.60
2010,04,19,00,12,12.60
2010,04,19,00,13,12.60
2010,04,19,00,14,12.60
2010,04,19,00,15,12.60
2010,04,19,00,16,12.60
2010,04,19,00,17,12.50
2010,04,19,00,18,12.50
2010,04,19,00,19,12.50
2010,04,19,00,20,12.50
2010,04,19,00,21,12.50
2010,04,19,00,22,12.50
2010,04,19,00,23,12.50
2010,04,19,00,24,12.50
2010,04,19,00,25,12.50
2010,04,19,00,26,12.50
2010,04,19,00,27,12.50
2010,04,19,00,28,12.50
2010,04,19,00,29,12.40
2010,04,19,00,30,12.40
2010,04,19,00,31,12.40
2010,04,19,00,32,12.40
2010,04,19,00,33,12.40
2010,04,19,00,34,12.40
2010,04,19,00,35,12.40
2010,04,19,00,36,12.40
2010,04,19,00,37,12.40
2010,04,19,00,38,12.30
2010,04,19,00,39,12.30
2010,04,19,00,40,12.30
2010,04,19,00,41,12.30
2010,04,19,00,42,12.30
2010,04,19,00,43,12.30
2010,04,19,00,44,12.30
2010,04,19,00,45,12.30
2010,04,19,00,46,12.30
2010,04,19,00,47,12.30
2010,04,19,00,48,12.30
2010,04,19,00,49,12.30
2010,04,19,00,50,12.30
2010,04,19,00,51,12.30
2010,04,19,00,52,12.30
2010,04,19,00,53,12.30
2010,04,19,00,54,12.20
2010,04,19,00,55,12.20
2010,04,19,00,56,12.20
2010,04,19,00,57,12.20
2010,04,19,00,58,12.20
2010,04,19,00,59,12.20
2010,04,19,01,00,12.20
2010,04,19,01,01,12.20
2010,04,19,01,02,12.20
2010,04,19,01,03,12.20
2010,04,19,01,04,12.20
2010,04,19,01,05,12.20
2010,04,19,01,06,12.20
2010,04,19,01,07,12.20
2010,04,19,01,08,12.20
2010,04,19,01,09,12.20
2010,04,19,01,10,12.20
2010,04,19,01,11,12.20
2010,04,19,01,12,12.20
2010,04,19,01,13,12.20
2010,04,19,01,14,12.20
2010,04,19,01,15,12.20
2010,04,19,01,16,12.20
2010,04,19,01,17,12.20
2010,04,19,01,18,12.20
2010,04,19,01,19,12.20
2010,04,19,01,20,12.20
2010,04,19,01,21,12.20
2010,04,19,01,22,12.20
2010,04,19,01,23,12.20
2010,04,19,01,24,12.20
2010,04,19,01,25,12.20
2010,04,19,01,26,12.20
2010,04,19,01,27,12.20
2010,04,19,01,28,12.20
2010,04,19,01,29,12.20
2010,04,19,01,30,12.20
2010,04,19,01,31,12.20
2010,04,19,01,32,12.20
2010,04,19,01,33,12.20
2010,04,19,01,34,12.20
2010,04,19,01,35,12.20
2010,04,19,01,36,12.20
2010,04,19,01,37,12.10
2010,04,19,01,38,12.10
2010,04,19,01,39,12.10
2010,04,19,01,40,12.10
2010,04,19,01,41,12.20
2010,04,19,01,42,12.20
2010,04,19,01,43,12.20
2010,04,19,01,44,12.20
2010,04,19,01,45,12.20
2010,04,19,01,46,12.20
2010,04,19,01,47,12.20
2010,04,19,01,48,12.20
2010,04,19,01,49,12.20
2010,04,19,01,50,12.20
2010,04,19,01,51,12.20
2010,04,19,01,52,12.10
2010,04,19,01,53,12.10
2010,04,19,01,54,12.10
2010,04,19,01,55,12.10
2010,04,19,01,56,12.10
2010,04,19,01,57,12.10
2010,04,19,01,58,12.10
2010,04,19,01,59,12.10
2010,04,19,02,00,12.10
2010,04,19,02,01,12.10
2010,04,19,02,02,12.00
2010,04,19,02,03,12.00
2010,04,19,02,04,12.00
2010,04,19,02,05,12.00
2010,04,19,02,06,12.00
2010,04,19,02,07,12.00
2010,04,19,02,08,12.00
2010,04,19,02,09,12.00
2010,04,19,02,10,12.00
2010,04,19,02,11,12.00
2010,04,19,02,12,12.00
2010,04,19,02,13,12.00
2010,04,19,02,14,11.90
2010,04,19,02,15,11.90
2010,04,19,02,16,11.90
2010,04,19,02,17,11.90
2010,04,19,02,18,11.80
2010,04,19,02,19,11.80
2010,04,19,02,20,11.80
2010,04,19,02,21,11.80
2010,04,19,02,22,11.80
2010,04,19,02,23,11.80
2010,04,19,02,24,11.80
2010,04,19,02,25,11.80
2010,04,19,02,26,11.80
2010,04,19,02,27,11.80
2010,04,19,02,28,11.80
2010,04,19,02,29,11.70
2010,04,19,02,30,11.70
2010,04,19,02,31,11.70
2010,04,19,02,32,11.70
2010,04,19,02,33,11.60
2010,04,19,02,34,11.60
2010,04,19,02,35,11.60
2010,04,19,02,36,11.60
2010,04,19,02,37,11.60
2010,04,19,02,38,11.60
2010,04,19,02,39,11.60
2010,04,19,02,40,11.60
2010,04,19,02,41,11.60
2010,04,19,02,42,11.60
2010,04,19,02,43,11.60
2010,04,19,02,44,11.60
2010,04,19,02,45,11.60
2010,04,19,02,46,11.60
2010,04,19,02,47,11.60
2010,04,19,02,48,11.60
2010,04,19,02,49,11.60
2010,04,19,02,50,11.60
2010,04,19,02,51,11.60
2010,04,19,02,52,11.60
2010,04,19,02,53,11.60
2010,04,19,02,54,11.60
2010,04,19,02,55,11.60
2010,04,19,02,56,11.60
2010,04,19,02,57,11.60
2010,04,19,02,58,11.60
2010,04,19,02,59,11.60
2010,04,19,03,00,11.60
2010,04,19,03,01,11.60
2010,04,19,03,02,11.60
2010,04,19,03,03,11.60
2010,04,19,03,04,11.60
2010,04,19,03,05,11.60
2010,04,19,03,06,11.60
2010,04,19,03,07,11.60
2010,04,19,03,08,11.60
2010,04,19,03,09,11.60
2010,04,19,03,10,11.60
2010,04,19,03,11,11.50
2010,04,19,03,12,11.50
2010,04,19,03,13,11.40
2010,04,19,03,14,11.40
2010,04,19,03,15,11.40
2010,04,19,03,16,11.40
2010,04,19,03,17,11.40
2010,04,19,03,18,11.40
2010,04,19,03,19,11.40
2010,04,19,03,20,11.40
2010,04,19,03,21,11.40
2010,04,19,03,22,11.40
2010,04,19,03,23,11.40
2010,04,19,03,24,11.40
2010,04,19,03,25,11.40
2010,04,19,03,26,11.40
2010,04,19,03,27,11.40
2010,04,19,03,28,11.40
2010,04,19,03,29,11.40
2010,04,19,03,30,11.30
2010,04,19,03,31,11.30
2010,04,19,03,32,11.30
2010,04,19,03,33,11.30
2010,04,19,03,34,11.20
2010,04,19,03,35,11.20
2010,04,19,03,36,11.20
2010,04,19,03,37,11.20
2010,04,19,03,38,11.20
2010,04,19,03,39,11.10
2010,04,19,03,40,11.10
2010,04,19,03,41,11.10
2010,04,19,03,42,11.10
2010,04,19,03,43,11.10
2010,04,19,03,44,11.10
2010,04,19,03,45,11.10
2010,04,19,03,46,11.10
2010,04,19,03,47,11.10
2010,04,19,03,48,11.10
2010,04,19,03,49,11.10
2010,04,19,03,50,11.10
2010,04,19,03,51,11.10
2010,04,19,03,52,11.10
2010,04,19,03,53,11.10
2010,04,19,03,54,11.10
2010,04,19,03,55,11.10
2010,04,19,03,56,11.10
2010,04,19,03,57,11.00
2010,04,19,03,58,10.90
2010,04,19,03,59,10.90
2010,04,19,04,00,10.90
2010,04,19,04,01,10.90
2010,04,19,04,02,10.90
2010,04,19,04,03,10.90
2010,04,19,04,04,10.90
2010,04,19,04,05,10.90
2010,04,19,04,06,10.90
2010,04,19,04,07,10.90
2010,04,19,04,08,10.90
2010,04,19,04,09,10.90
2010,04,19,04,10,10.90
2010,04,19,04,11,10.90
2010,04,19,04,12,10.90
2010,04,19,04,13,10.90
2010,04,19,04,14,10.90
2010,04,19,04,15,10.90
2010,04,19,04,16,10.90
2010,04,19,04,17,10.90
2010,04,19,04,18,10.90
2010,04,19,04,19,10.90
2010,04,19,04,20,10.90
2010,04,19,04,21,10.90
2010,04,19,04,22,10.90
2010,04,19,04,23,10.90
2010,04,19,04,24,10.90
2010,04,19,04,25,10.90
2010,04,19,04,26,10.90
2010,04,19,04,27,10.90
2010,04,19,04,28,10.90
2010,04,19,04,29,10.90
2010,04,19,04,30,10.90
2010,04,19,04,31,10.90
2010,04,19,04,32,10.90
2010,04,19,04,33,10.90
2010,04,19,04,34,10.90
2010,04,19,04,35,10.90
2010,04,19,04,36,10.90
2010,04,19,04,37,10.90
2010,04,19,04,38,10.90
2010,04,19,04,39,10.90
2010,04,19,04,40,10.90
2010,04,19,04,41,10.90
2010,04,19,04,42,10.90
2010,04,19,04,43,10.90
2010,04,19,04,44,10.90
2010,04,19,04,45,10.90
2010,04,19,04,46,10.90
2010,04,19,04,47,10.90
2010,04,19,04,48,10.90
2010,04,19,04,49,10.90
2010,04,19,04,50,10.90
2010,04,19,04,51,10.90
2010,04,19,04,52,10.90
2010,04,19,04,53,10.90
2010,04,19,04,54,11.00
2010,04,19,04,55,11.10
2010,04,19,04,56,11.10
2010,04,19,04,57,11.10
2010,04,19,04,58,11.10
2010,04,19,04,59,11.10
2010,04,19,05,00,11.10
2010,04,19,05,01,11.10
2010,04,19,05,02,11.10
2010,04,19,05,03,11.10
2010,04,19,05,04,11.10
2010,04,19,05,05,11.20
2010,04,19,05,06,11.20
2010,04,19,05,07,11.20
2010,04,19,05,08,11.20
2010,04,19,05,09,11.30
2010,04,19,05,10,11.30
2010,04,19,05,11,11.30
2010,04,19,05,12,11.30
2010,04,19,05,13,11.40
2010,04,19,05,14,11.40
2010,04,19,05,15,11.40
2010,04,19,05,16,11.40
2010,04,19,05,17,11.40
2010,04,19,05,18,11.40
2010,04,19,05,19,11.40
2010,04,19,05,20,11.40
2010,04,19,05,21,11.50
2010,04,19,05,22,11.60
2010,04,19,05,23,11.60
2010,04,19,05,24,11.60
2010,04,19,05,25,11.60
2010,04,19,05,26,11.60
2010,04,19,05,27,11.60
2010,04,19,05,28,11.70
2010,04,19,05,29,11.70
2010,04,19,05,30,11.70
2010,04,19,05,31,11.80
2010,04,19,05,32,11.80
2010,04,19,05,33,11.80
2010,04,19,05,34,11.80
2010,04,19,05,35,11.80
2010,04,19,05,36,11.80
2010,04,19,05,37,11.80
2010,04,19,05,38,11.80
2010,04,19,05,39,11.80
2010,04,19,05,40,11.80
2010,04,19,05,41,11.80
2010,04,19,05,42,11.80
2010,04,19,05,43,11.90
2010,04,19,05,44,11.90
2010,04,19,05,45,11.90
2010,04,19,05,46,11.90
2010,04,19,05,47,11.90
2010,04,19,05,48,11.90
2010,04,19,05,49,12.00
2010,04,19,05,50,12.00
2010,04,19,05,51,12.00
2010,04,19,05,52,12.10
2010,04,19,05,53,12.10
2010,04,19,05,54,12.10
2010,04,19,05,55,12.10
2010,04,19,05,56,12.20
2010,04,19,05,57,12.20
2010,04,19,05,58,12.20
2010,04,19,05,59,12.20
2010,04,19,06,00,12.20
2010,04,19,06,01,12.20
2010,04,19,06,02,12.20
2010,04,19,06,03,12.30
2010,04,19,06,04,12.30
2010,04,19,06,05,12.30
2010,04,19,06,06,12.30
2010,04,19,06,07,12.30
2010,04,19,06,08,12.30
2010,04,19,06,09,12.30
2010,04,19,06,10,12.20
2010,04,19,06,11,12.20
2010,04,19,06,12,12.20
2010,04,19,06,13,12.20
2010,04,19,06,14,12.20
2010,04,19,06,15,12.20
2010,04,19,06,16,12.20
2010,04,19,06,17,12.20
2010,04,19,06,18,12.20
2010,04,19,06,19,12.20
2010,04,19,06,20,12.20
2010,04,19,06,21,12.20
2010,04,19,06,22,12.20
2010,04,19,06,23,12.20
2010,04,19,06,24,12.20
2010,04,19,06,25,12.20
2010,04,19,06,26,12.20
2010,04,19,06,27,12.20
2010,04,19,06,28,12.20
2010,04,19,06,29,12.10
2010,04,19,06,30,12.20
2010,04,19,06,31,12.10
2010,04,19,06,32,12.10
2010,04,19,06,33,12.10
2010,04,19,06,34,12.10
2010,04,19,06,35,12.10
2010,04,19,06,36,12.10
2010,04,19,06,37,12.10
2010,04,19,06,38,12.10
2010,04,19,06,39,12.10
2010,04,19,06,40,12.10
2010,04,19,06,41,12.10
2010,04,19,06,42,12.00
2010,04,19,06,43,12.00
2010,04,19,06,44,12.00
2010,04,19,06,45,12.00
2010,04,19,06,46,12.00
2010,04,19,06,47,12.10
2010,04,19,06,48,12.10
2010,04,19,06,49,12.10
2010,04,19,06,50,12.10
2010,04,19,06,51,12.10
2010,04,19,06,52,12.10
2010,04,19,06,53,12.10
2010,04,19,06,54,12.10
2010,04,19,06,55,12.20
2010,04,19,06,56,12.20
2010,04,19,06,57,12.20
2010,04,19,06,58,12.20
2010,04,19,06,59,12.20
2010,04,19,07,00,12.20
2010,04,19,07,01,12.20
2010,04,19,07,02,12.30
2010,04,19,07,03,12.30
2010,04,19,07,04,12.30
2010,04,19,07,05,12.30
2010,04,19,07,06,12.30
2010,04,19,07,07,12.30
2010,04,19,07,08,12.30
2010,04,19,07,09,12.40
2010,04,19,07,10,12.40
2010,04,19,07,11,12.40
2010,04,19,07,12,12.40
2010,04,19,07,13,12.40
2010,04,19,07,14,12.40
2010,04,19,07,15,12.40
2010,04,19,07,16,12.40
2010,04,19,07,17,12.40
2010,04,19,07,18,12.40
2010,04,19,07,19,12.40
2010,04,19,07,20,12.50
2010,04,19,07,21,12.50
2010,04,19,07,22,12.50
2010,04,19,07,23,12.50
2010,04,19,07,24,12.50
2010,04,19,07,25,12.50
2010,04,19,07,26,12.50
2010,04,19,07,27,12.50
2010,04,19,07,28,12.50
2010,04,19,07,29,12.50
2010,04,19,07,30,12.50
2010,04,19,07,31,12.50
2010,04,19,07,32,12.50
2010,04,19,07,33,12.50
2010,04,19,07,34,12.60
2010,04,19,07,35,12.60
2010,04,19,07,36,12.60
2010,04,19,07,37,12.60
2010,04,19,07,38,12.60
2010,04,19,07,39,12.60
2010,04,19,07,40,12.60
2010,04,19,07,41,12.60
2010,04,19,07,42,12.60
2010,04,19,07,43,12.60
2010,04,19,07,44,12.60
2010,04,19,07,45,12.70
2010,04,19,07,46,12.70
2010,04,19,07,47,12.70
2010,04,19,07,48,12.70
2010,04,19,07,49,12.70
2010,04,19,07,50,12.70
2010,04,19,07,51,12.80
2010,04,19,07,52,12.80
2010,04,19,07,53,12.80
2010,04,19,07,54,12.80
2010,04,19,07,55,12.80
2010,04,19,07,56,12.80
2010,04,19,07,57,12.80
2010,04,19,07,58,12.80
2010,04,19,07,59,12.80
2010,04,19,08,00,12.80
2010,04,19,08,01,12.80
2010,04,19,08,02,12.80
2010,04,19,08,03,12.90
2010,04,19,08,04,12.90
2010,04,19,08,05,12.90
2010,04,19,08,06,12.90
2010,04,19,08,07,13.00
2010,04,19,08,08,13.00
2010,04,19,08,09,13.00
2010,04,19,08,10,13.00
2010,04,19,08,11,13.00
2010,04,19,08,12,13.10
2010,04,19,08,13,13.10
2010,04,19,08,14,13.10
2010,04,19,08,15,13.10
2010,04,19,08,16,13.10
2010,04,19,08,17,13.20
2010,04,19,08,18,13.20
2010,04,19,08,19,13.20
2010,04,19,08,20,13.20
2010,04,19,08,21,13.20
2010,04,19,08,22,13.30
2010,04,19,08,23,13.30
2010,04,19,08,24,13.30
2010,04,19,08,25,13.30
2010,04,19,08,26,13.30
2010,04,19,08,27,13.30
2010,04,19,08,28,13.30
2010,04,19,08,29,13.40
2010,04,19,08,30,13.40
2010,04,19,08,31,13.40
2010,04,19,08,32,13.40
2010,04,19,08,33,13.50
2010,04,19,08,34,13.50
2010,04,19,08,35,13.50
2010,04,19,08,36,13.50
2010,04,19,08,37,13.50
2010,04,19,08,38,13.50
2010,04,19,08,39,13.60
2010,04,19,08,40,13.60
2010,04,19,08,41,13.60
2010,04,19,08,42,13.60
2010,04,19,08,43,13.60
2010,04,19,08,44,13.60
2010,04,19,08,45,13.70
2010,04,19,08,46,13.70
2010,04,19,08,47,13.70
2010,04,19,08,48,13.70
2010,04,19,08,49,13.70
2010,04,19,08,50,13.70
2010,04,19,08,51,13.70
2010,04,19,08,52,13.70
2010,04,19,08,53,13.70
2010,04,19,08,54,13.70
2010,04,19,08,55,13.70
2010,04,19,08,56,13.70
2010,04,19,08,57,13.80
2010,04,19,08,58,13.80
2010,04,19,08,59,13.80
2010,04,19,09,00,13.80
2010,04,19,09,01,13.80
2010,04,19,09,02,13.80
2010,04,19,09,03,13.80
2010,04,19,09,04,13.90
2010,04,19,09,05,13.90
2010,04,19,09,06,13.90
2010,04,19,09,07,13.90
2010,04,19,09,08,13.90
2010,04,19,09,09,13.90
2010,04,19,09,10,13.90
2010,04,19,09,11,13.90
2010,04,19,09,12,13.90
2010,04,19,09,13,14.00
2010,04,19,09,14,14.00
2010,04,19,09,15,14.00
2010,04,19,09,16,14.00
2010,04,19,09,17,14.00
2010,04,19,09,18,14.00
2010,04,19,09,19,14.00
2010,04,19,09,20,14.00
2010,04,19,09,21,14.00
2010,04,19,09,22,14.00
2010,04,19,09,23,14.00
2010,04,19,09,24,14.00
2010,04,19,09,25,14.00
2010,04,19,09,26,14.00
2010,04,19,09,27,14.00
2010,04,19,09,28,14.00
2010,04,19,09,29,14.00
2010,04,19,09,30,14.00
2010,04,19,09,31,14.00
2010,04,19,09,32,14.00
2010,04,19,09,33,14.10
2010,04,19,09,34,14.10
2010,04,19,09,35,14.10
2010,04,19,09,36,14.10
2010,04,19,09,37,14.10
2010,04,19,09,38,14.10
2010,04,19,09,39,14.20
2010,04,19,09,40,14.20
2010,04,19,09,41,14.20
2010,04,19,09,42,14.20
2010,04,19,09,43,14.20
2010,04,19,09,44,14.20
2010,04,19,09,45,14.20
2010,04,19,09,46,14.20
2010,04,19,09,47,14.20
2010,04,19,09,48,14.20
2010,04,19,09,49,14.20
2010,04,19,09,50,14.20
2010,04,19,09,51,14.30
2010,04,19,09,52,14.30
2010,04,19,09,53,14.30
2010,04,19,09,54,14.30
2010,04,19,09,55,14.40
2010,04,19,09,56,14.40
2010,04,19,09,57,14.40
2010,04,19,09,58,14.50
2010,04,19,09,59,14.50
2010,04,19,10,00,14.50
2010,04,19,10,01,14.50
2010,04,19,10,02,14.60
2010,04,19,10,03,14.60
2010,04,19,10,04,14.60
2010,04,19,10,05,14.70
2010,04,19,10,06,14.70
2010,04,19,10,07,14.80
2010,04,19,10,08,14.80
2010,04,19,10,09,14.80
2010,04,19,10,10,14.90
2010,04,19,10,11,14.90
2010,04,19,10,12,15.00
2010,04,19,10,13,15.00
2010,04,19,10,14,15.10
2010,04,19,10,15,15.10
2010,04,19,10,16,15.20
2010,04,19,10,17,15.30
2010,04,19,10,18,15.30
2010,04,19,10,19,15.40
2010,04,19,10,20,15.40
2010,04,19,10,21,15.50
2010,04,19,10,22,15.60
2010,04,19,10,23,15.60
2010,04,19,10,24,15.70
2010,04,19,10,25,15.80
2010,04,19,10,26,15.80
2010,04,19,10,27,15.90
2010,04,19,10,28,15.90
2010,04,19,10,29,16.10
2010,04,19,10,30,16.10
2010,04,19,10,31,16.20
2010,04,19,10,32,16.20
2010,04,19,10,33,16.20
2010,04,19,10,34,16.30
2010,04,19,10,35,16.20
2010,04,19,10,36,16.30
2010,04,19,10,37,16.30
2010,04,19,10,38,16.40
2010,04,19,10,39,16.40
2010,04,19,10,40,16.50
2010,04,19,10,41,16.60
2010,04,19,10,42,16.70
2010,04,19,10,43,16.80
2010,04,19,10,44,16.80
2010,04,19,10,45,16.80
2010,04,19,10,46,16.90
2010,04,19,10,47,17.00
2010,04,19,10,48,17.10
2010,04,19,10,49,17.10
2010,04,19,10,50,17.20
2010,04,19,10,51,17.20
2010,04,19,10,52,17.30
2010,04,19,10,53,17.30
2010,04,19,10,54,17.30
2010,04,19,10,55,17.30
2010,04,19,10,56,17.30
2010,04,19,10,57,17.20
2010,04,19,10,58,17.20
2010,04,19,10,59,17.20
2010,04,19,11,00,17.20
2010,04,19,11,01,17.20
2010,04,19,11,02,17.30
2010,04,19,11,03,17.30
2010,04,19,11,04,17.30
2010,04,19,11,05,17.30
2010,04,19,11,06,17.30
2010,04,19,11,07,17.40
2010,04,19,11,08,17.50
2010,04,19,11,09,17.50
2010,04,19,11,10,17.60
2010,04,19,11,11,17.70
2010,04,19,11,12,17.70
2010,04,19,11,13,17.80
2010,04,19,11,14,17.80
2010,04,19,11,15,17.80
2010,04,19,11,16,17.80
2010,04,19,11,17,17.70
2010,04,19,11,18,17.70
2010,04,19,11,19,17.70
2010,04,19,11,20,17.60
2010,04,19,11,21,17.60
2010,04,19,11,22,17.60
2010,04,19,11,23,17.60
2010,04,19,11,24,17.60
2010,04,19,11,25,17.70
2010,04,19,11,26,17.80
2010,04,19,11,27,17.80
2010,04,19,11,28,17.90
2010,04,19,11,29,18.00
2010,04,19,11,30,18.10
2010,04,19,11,31,18.20
2010,04,19,11,32,18.20
2010,04,19,11,33,18.40
2010,04,19,11,34,18.50
2010,04,19,11,35,18.60
2010,04,19,11,36,18.60
2010,04,19,11,37,18.70
2010,04,19,11,38,18.80
2010,04,19,11,39,18.90
2010,04,19,11,40,18.90
2010,04,19,11,41,18.90
2010,04,19,11,42,18.90
2010,04,19,11,43,18.90
2010,04,19,11,44,18.90
2010,04,19,11,45,18.90
2010,04,19,11,46,18.90
2010,04,19,11,47,18.90
2010,04,19,11,48,18.90
2010,04,19,11,49,18.90
2010,04,19,11,50,18.90
2010,04,19,11,51,18.90
2010,04,19,11,52,18.90
2010,04,19,11,53,18.90
2010,04,19,11,54,18.90
2010,04,19,11,55,18.90
2010,04,19,11,56,18.90
2010,04,19,11,57,18.90
2010,04,19,11,58,18.90
2010,04,19,11,59,18.90
2010,04,19,12,00,19.10
2010,04,19,12,01,19.10
2010,04,19,12,02,19.10
2010,04,19,12,03,19.20
2010,04,19,12,04,19.20
2010,04,19,12,05,19.20
2010,04,19,12,06,19.20
2010,04,19,12,07,19.30
2010,04,19,12,08,19.30
2010,04,19,12,09,19.40
2010,04,19,12,10,19.30
2010,04,19,12,11,19.00
2010,04,19,12,12,18.80
2010,04,19,12,13,18.80
2010,04,19,12,14,18.60
2010,04,19,12,15,18.50
2010,04,19,12,16,18.30
2010,04,19,12,17,18.10
2010,04,19,12,18,17.90
2010,04,19,12,19,17.80
2010,04,19,12,20,17.60
2010,04,19,12,21,17.50
2010,04,19,12,22,17.50
2010,04,19,12,23,17.50
2010,04,19,12,24,17.60
2010,04,19,12,25,17.60
2010,04,19,12,26,17.70
2010,04,19,12,27,17.70
2010,04,19,12,28,17.60
2010,04,19,12,29,17.50
2010,04,19,12,30,17.30
2010,04,19,12,31,17.30
2010,04,19,12,32,17.20
2010,04,19,12,33,17.20
2010,04,19,12,34,17.30
2010,04,19,12,35,17.30
2010,04,19,12,36,17.30
2010,04,19,12,37,17.30
2010,04,19,12,38,17.30
2010,04,19,12,39,17.20
2010,04,19,12,40,17.10
2010,04,19,12,41,17.00
2010,04,19,12,42,17.00
2010,04,19,12,43,17.00
2010,04,19,12,44,17.00
2010,04,19,12,45,17.00
2010,04,19,12,46,17.10
2010,04,19,12,47,17.00
2010,04,19,12,48,17.10
2010,04,19,12,49,17.00
2010,04,19,12,50,17.00
2010,04,19,12,51,16.90
2010,04,19,12,52,16.90
2010,04,19,12,53,16.90
2010,04,19,12,54,16.90
2010,04,19,12,55,17.00
2010,04,19,12,56,17.00
2010,04,19,12,57,17.00
2010,04,19,12,58,17.00
2010,04,19,12,59,17.00
2010,04,19,13,00,17.10
2010,04,19,13,01,17.20
2010,04,19,13,02,17.30
2010,04,19,13,03,17.30
2010,04,19,13,04,17.30
2010,04,19,13,05,17.30
2010,04,19,13,06,17.20
2010,04,19,13,07,17.20
2010,04,19,13,08,17.20
2010,04,19,13,09,17.30
2010,04,19,13,10,17.30
2010,04,19,13,11,17.40
2010,04,19,13,12,17.50
2010,04,19,13,13,17.50
2010,04,19,13,14,17.50
2010,04,19,13,15,17.50
2010,04,19,13,16,17.60
2010,04,19,13,17,17.60
2010,04,19,13,18,17.70
2010,04,19,13,19,17.80
2010,04,19,13,20,17.90
2010,04,19,13,21,17.90
2010,04,19,13,22,17.90
2010,04,19,13,23,17.90
2010,04,19,13,24,17.70
2010,04,19,13,25,17.70
2010,04,19,13,26,17.70
2010,04,19,13,27,17.80
2010,04,19,13,28,17.80
2010,04,19,13,29,17.80
2010,04,19,13,30,17.90
2010,04,19,13,31,17.90
2010,04,19,13,32,17.90
2010,04,19,13,33,17.90
2010,04,19,13,34,17.90
2010,04,19,13,35,17.90
2010,04,19,13,36,17.90
2010,04,19,13,37,18.00
2010,04,19,13,38,18.10
2010,04,19,13,39,18.20
2010,04,19,13,40,18.30
2010,04,19,13,41,18.30
2010,04,19,13,42,18.50
2010,04,19,13,43,18.50
2010,04,19,13,44,18.60
2010,04,19,13,45,18.70
2010,04,19,13,46,18.80
2010,04,19,13,47,18.70
2010,04,19,13,48,18.70
2010,04,19,13,49,18.60
2010,04,19,13,50,18.60
2010,04,19,13,51,18.50
2010,04,19,13,52,18.40
2010,04,19,13,53,18.40
2010,04,19,13,54,18.40
2010,04,19,13,55,18.40
2010,04,19,13,56,18.40
2010,04,19,13,57,18.60
2010,04,19,13,58,18.60
2010,04,19,13,59,18.60
2010,04,19,14,00,18.60
2010,04,19,14,01,18.60
2010,04,19,14,02,18.70
2010,04,19,14,03,18.70
2010,04,19,14,04,18.80
2010,04,19,14,05,18.80
2010,04,19,14,06,18.70
2010,04,19,14,07,18.70
2010,04,19,14,08,18.70
2010,04,19,14,09,18.60
2010,04,19,14,10,18.40
2010,04,19,14,11,18.30
2010,04,19,14,12,18.20
2010,04,19,14,13,18.10
2010,04,19,14,14,18.10
2010,04,19,14,15,18.10
2010,04,19,14,16,18.20
2010,04,19,14,17,18.20
2010,04,19,14,18,18.20
2010,04,19,14,19,18.20
2010,04,19,14,20,18.00
2010,04,19,14,21,17.90
2010,04,19,14,22,17.80
2010,04,19,14,23,17.90
2010,04,19,14,24,18.10
2010,04,19,14,25,18.30
2010,04,19,14,26,18.50
2010,04,19,14,27,18.60
2010,04,19,14,28,18.70
2010,04,19,14,29,18.70
2010,04,19,14,30,18.70
2010,04,19,14,31,18.80
2010,04,19,14,32,18.90
2010,04,19,14,33,18.90
2010,04,19,14,34,18.80
2010,04,19,14,35,18.80
2010,04,19,14,36,18.70
2010,04,19,14,37,18.70
2010,04,19,14,38,18.70
2010,04,19,14,39,18.80
2010,04,19,14,40,19.00
2010,04,19,14,41,19.20
2010,04,19,14,42,19.20
2010,04,19,14,43,19.30
2010,04,19,14,44,19.30
2010,04,19,14,45,19.40
2010,04,19,14,46,19.50
2010,04,19,14,47,19.50
2010,04,19,14,48,19.50
2010,04,19,14,49,19.50
2010,04,19,14,50,19.50
2010,04,19,14,51,19.40
2010,04,19,14,52,19.20
2010,04,19,14,53,19.10
2010,04,19,14,54,19.00
2010,04,19,14,55,18.90
2010,04,19,14,56,18.90
2010,04,19,14,57,18.80
2010,04,19,14,58,18.70
2010,04,19,14,59,18.70
2010,04,19,15,00,18.60
2010,04,19,15,01,18.60
2010,04,19,15,02,18.60
2010,04,19,15,03,18.60
2010,04,19,15,04,18.60
2010,04,19,15,05,18.70
2010,04,19,15,06,18.80
2010,04,19,15,07,18.80
2010,04,19,15,08,18.90
2010,04,19,15,09,18.90
2010,04,19,15,10,18.90
2010,04,19,15,11,18.90
2010,04,19,15,12,18.90
2010,04,19,15,13,18.80
2010,04,19,15,14,18.70
2010,04,19,15,15,18.70
2010,04,19,15,16,18.70
2010,04,19,15,17,18.60
2010,04,19,15,18,18.60
2010,04,19,15,19,18.60
2010,04,19,15,20,18.70
2010,04,19,15,21,18.70
2010,04,19,15,22,18.70
2010,04,19,15,23,18.80
2010,04,19,15,24,18.70
2010,04,19,15,25,18.70
2010,04,19,15,26,18.80
2010,04,19,15,27,18.80
2010,04,19,15,28,18.80
2010,04,19,15,29,18.80
2010,04,19,15,30,18.90
2010,04,19,15,31,18.90
2010,04,19,15,32,19.00
2010,04,19,15,33,19.10
2010,04,19,15,34,19.20
2010,04,19,15,35,19.20
2010,04,19,15,36,19.30
2010,04,19,15,37,19.30
2010,04,19,15,38,19.30
2010,04,19,15,39,19.20
2010,04,19,15,40,19.10
2010,04,19,15,41,19.00
2010,04,19,15,42,18.90
2010,04,19,15,43,18.80
2010,04,19,15,44,18.70
2010,04,19,15,45,18.50
2010,04,19,15,46,18.40
2010,04,19,15,47,18.30
2010,04,19,15,48,18.20
2010,04,19,15,49,18.10
2010,04,19,15,50,18.00
2010,04,19,15,51,17.90
2010,04,19,15,52,17.90
2010,04,19,15,53,17.90
2010,04,19,15,54,17.90
2010,04,19,15,55,17.90
2010,04,19,15,56,17.90
2010,04,19,15,57,17.90
2010,04,19,15,58,17.90
2010,04,19,15,59,17.80
2010,04,19,16,00,17.70
2010,04,19,16,01,17.60
2010,04,19,16,02,17.50
2010,04,19,16,03,17.40
2010,04,19,16,04,17.30
2010,04,19,16,05,17.20
2010,04,19,16,06,17.00
2010,04,19,16,07,16.90
2010,04,19,16,08,16.80
2010,04,19,16,09,16.70
2010,04,19,16,10,16.40
2010,04,19,16,11,16.30
2010,04,19,16,12,16.20
2010,04,19,16,13,16.00
2010,04,19,16,14,15.90
2010,04,19,16,15,15.70
2010,04,19,16,16,15.60
2010,04,19,16,17,15.40
2010,04,19,16,18,15.30
2010,04,19,16,19,15.10
2010,04,19,16,20,15.00
2010,04,19,16,21,14.90
2010,04,19,16,22,14.70
2010,04,19,16,23,14.60
2010,04,19,16,24,14.60
2010,04,19,16,25,14.60
2010,04,19,16,26,14.60
2010,04,19,16,27,14.60
2010,04,19,16,28,14.60
2010,04,19,16,29,14.60
2010,04,19,16,30,14.50
2010,04,19,16,31,14.40
2010,04,19,16,32,14.30
2010,04,19,16,33,14.20
2010,04,19,16,34,14.20
2010,04,19,16,35,14.20
2010,04,19,16,36,14.20
2010,04,19,16,37,14.20
2010,04,19,16,38,14.20
2010,04,19,16,39,14.20
2010,04,19,16,40,14.20
2010,04,19,16,41,14.20
2010,04,19,16,42,14.20
2010,04,19,16,43,14.20
2010,04,19,16,44,14.20
2010,04,19,16,45,14.20
2010,04,19,16,46,14.20
2010,04,19,16,47,14.30
2010,04,19,16,48,14.30
2010,04,19,16,49,14.30
2010,04,19,16,50,14.30
2010,04,19,16,51,14.40
2010,04,19,16,52,14.50
2010,04,19,16,53,14.60
2010,04,19,16,54,14.70
2010,04,19,16,55,14.80
2010,04,19,16,56,14.80
2010,04,19,16,57,14.90
2010,04,19,16,58,14.90
2010,04,19,16,59,14.90
2010,04,19,17,00,14.90
2010,04,19,17,01,15.00
2010,04,19,17,02,15.10
2010,04,19,17,03,15.20
2010,04,19,17,04,15.20
2010,04,19,17,05,15.30
2010,04,19,17,06,15.40
2010,04,19,17,07,15.40
2010,04,19,17,08,15.50
2010,04,19,17,09,15.60
2010,04,19,17,10,15.70
2010,04,19,17,11,15.70
2010,04,19,17,12,15.80
2010,04,19,17,13,15.90
2010,04,19,17,14,16.10
2010,04,19,17,15,16.20
2010,04,19,17,16,16.30
2010,04,19,17,17,16.30
2010,04,19,17,18,16.40
2010,04,19,17,19,16.40